[[{"header":{"parameterUnit":"m.s-1","parameterCategory":1,"la1":30.2991,"la2":30.254,"lo1":-89.0895,"lo2":-89.0444,"dy":0.0017,"dx":0.0017,"nx":28,"ny":28,"refTime":"2023-10-13T09:00:00:Z","depth":0,"parameterNumber":2,"parameterNumberName":"U-component_of_WINDS"},"data":[0,0,0,0,0,0,0,0,0,0,0,0,0,0,0,0,0,0,0,0,0,0,0,0,0,0,0,0,0,0,0,0,0,0,0,0,0,0,0,0,0,0,0,0,0,0,0,0,0,0,0,0,0,0,0,0,0,0,0.3852,0.3853,0,0.3995,0.3996,0.3998,0.4045,0.4044,0.4044,0.4043,0.4195,0.42,0.4204,0,0,0,0,0,0,0,0,0,0,0,0,0,0.3622,0.3626,0.3851,0.3853,0.3855,0.3994,0.3996,0.3998,0.4045,0.4044,0.4044,0.4043,0.4194,0.4199,0.4205,0,0,0,0,0,0,0,0,0,0,0,0,0,0.3739,0.3628,0.3851,0.3895,0.39,0.3994,0.3997,0.3999,0.4045,0.4044,0.4043,0.4043,0.4192,0.4199,0.4206,0.4268,0,0,0.4227,0.423,0,0,0,0,0,0,0,0,0.3733,0.3748,0.3887,0.3892,0.3898,0.4001,0.3971,0.4089,0.4046,0.3991,0.4043,0.4042,0.4132,0.4144,0.4173,0.4275,0.4281,0.4228,0.4232,0.4235,0.4237,0,0,0,0,0,0,0,0.3725,0.3742,0.3908,0.3889,0.3896,0.3909,0.3924,0.3994,0.4065,0.3995,0.3999,0.4015,0.4135,0.4166,0.4177,0.4284,0.4227,0.4234,0.4238,0.4241,0.4443,0.4444,0,0,0,0,0,0,0.3708,0.3735,0.3904,0.3913,0.3811,0.3914,0.3931,0.3969,0.4064,0.4078,0.4016,0.4017,0.4155,0.4169,0.4182,0.426,0.4235,0.4241,0.4245,0.4441,0.4443,0.4444,0,0,0,0,0,0,0.3703,0.3723,0.3898,0.3825,0.3848,0.3919,0.3961,0.3972,0.4004,0.408,0.4093,0.4034,0.4154,0.4172,0.4245,0.4266,0.4244,0.4251,0.444,0.4442,0.4443,0.4418,0,0,0,0,0,0,0.3696,0.3721,0.3744,0.3825,0.3852,0.3958,0.3962,0.3976,0.4015,0.4017,0.4101,0.4113,0.4155,0.4235,0.4252,0.4276,0.4256,0.4438,0.4441,0.4443,0.4417,0.4418,0.4419,0,0,0,0,0,0.3688,0.3733,0.3745,0.3766,0.3882,0.3959,0.3974,0.402,0.4016,0.4041,0.409,0.4111,0.4261,0.4242,0.4262,0.4288,0.4437,0.444,0.4443,0.4416,0.4418,0.4419,0,0,0,0,0,0,0.3656,0.3744,0.3759,0.3831,0.3886,0.3966,0.3999,0.402,0.4079,0.408,0.4135,0.4153,0.4222,0.4262,0.4239,0.4352,0.435,0.4357,0.4323,0.4325,0.4327,0.4316,0.4262,0,0,0,0,0,0.3656,0.3709,0.3785,0.3841,0.3868,0.3928,0.3963,0.3993,0.4054,0.4078,0.4132,0.4192,0.4252,0.4291,0.4351,0.4423,0.4441,0.445,0.4451,0.4452,0.4457,0.4498,0.4502,0.4453,0.4453,0.4453,0,0,0.3659,0.3714,0.3745,0.3836,0.3882,0.3937,0.3948,0.4006,0.4047,0.4088,0.4159,0.4201,0.4271,0.4343,0.4377,0.4378,0.4475,0.4455,0.4455,0.4461,0.4501,0.4505,0.4509,0.4455,0.4454,0.4454,0,0,0.3693,0.3739,0.3791,0.3836,0.3906,0.3945,0.3957,0.4034,0.4062,0.4134,0.4165,0.4216,0.4319,0.4367,0.4405,0.4454,0.4476,0.4472,0.4479,0.4517,0.4521,0.4525,0.4542,0.4548,0.4477,0.4477,0.4477,0,0.3688,0.377,0.3815,0.387,0.3909,0.3945,0.3998,0.4041,0.4127,0.4154,0.4153,0.4282,0.4332,0.4415,0.4427,0.4457,0.4473,0.4463,0.4517,0.4521,0.4525,0.4542,0.4548,0.4476,0.4476,0.4476,0.4477,0,0.3761,0.3817,0.3851,0.393,0.3973,0.4027,0.4081,0.4119,0.4144,0.4184,0.4256,0.4317,0.4389,0.4411,0.4438,0.4498,0.4496,0.4505,0.4505,0.4528,0.4545,0.4552,0.4475,0.4475,0.4475,0.4476,0,0,0.378,0.3881,0.3893,0.3928,0.4007,0.4052,0.4107,0.4176,0.4207,0.4265,0.4313,0.4398,0.4406,0.4449,0.4482,0.4515,0.4549,0.452,0.4523,0.4523,0.4619,0.4611,0.4618,0.4563,0.4565,0.4566,0.4613,0,0.3823,0.3921,0.3962,0.4042,0.4095,0.4129,0.4177,0.4231,0.4269,0.432,0.4363,0.4423,0.4429,0.4455,0.449,0.4537,0.4569,0.4535,0.461,0.4612,0.4591,0.4627,0.462,0.4661,0.462,0.4621,0.4622,0,0.3887,0.3942,0.4027,0.4097,0.4121,0.4163,0.4228,0.4276,0.4338,0.4363,0.4409,0.4439,0.4499,0.4494,0.4577,0.4553,0.4586,0.4614,0.4617,0.4626,0.4618,0.4637,0.4676,0.4682,0.4633,0.4632,0.4631,0,0.3891,0.3987,0.405,0.408,0.4163,0.4192,0.4229,0.4289,0.4327,0.4384,0.4409,0.4474,0.4509,0.4559,0.4605,0.4597,0.4684,0.4683,0.4708,0.4707,0.4726,0.4724,0.477,0.4746,0.4746,0.4746,0.4746,0,0.3936,0.3986,0.4053,0.4091,0.4149,0.4195,0.4251,0.429,0.4343,0.4391,0.4425,0.4469,0.4527,0.4579,0.4616,0.4679,0.4695,0.4718,0.4727,0.4715,0.4712,0.4738,0.4737,0.4748,0.4747,0.4747,0.4747,0,0.3951,0.3998,0.4068,0.414,0.4159,0.4198,0.4261,0.43,0.4339,0.4398,0.4415,0.4477,0.4539,0.459,0.4673,0.4697,0.4763,0.4774,0.4742,0.4747,0.4769,0.4766,0.4833,0.4844,0.4813,0.4813,0.4813,0,0.3976,0.4015,0.4091,0.4124,0.4159,0.4212,0.425,0.4297,0.4336,0.4407,0.4438,0.4502,0.4556,0.4654,0.4708,0.4771,0.4783,0.4802,0.4793,0.4779,0.4783,0.478,0.4784,0.4803,0.4803,0.4804,0.4804,0,0.4016,0.4036,0.4089,0.4149,0.4193,0.4243,0.4294,0.432,0.4377,0.4418,0.4481,0.4522,0.4605,0.4669,0.4737,0.4776,0.4799,0.4806,0.4815,0.4803,0.4783,0.4794,0.4744,0.4804,0.4804,0.4804,0.4804,0.4804,0.4037,0.4073,0.4131,0.4188,0.4231,0.4277,0.4317,0.4359,0.4412,0.4481,0.4506,0.4571,0.4631,0.4724,0.4763,0.4815,0.4817,0.4831,0.4834,0.4837,0.4835,0.4773,0.4827,0.4828,0.4828,0.4828,0.4828,0,0.4079,0.4117,0.4169,0.4238,0.4282,0.4298,0.4355,0.4392,0.4447,0.45,0.4551,0.4623,0.4684,0.4741,0.4805,0.4836,0.4848,0.4851,0.485,0.4858,0.4829,0.4815,0.484,0.484,0.484,0.484,0.484,0.484,0.4105,0.4166,0.4193,0.4276,0.4314,0.4376,0.4407,0.445,0.4492,0.457,0.462,0.4655,0.471,0.4778,0.4835,0.485,0.4872,0.4872,0.489,0.4862,0.486,0.4859,0.4845,0.4876,0.4876,0.4915,0.4915,0.4915]},{"header":{"parameterUnit":"m.s-1","parameterCategory":1,"la1":30.2991,"la2":30.254,"lo1":-89.0895,"lo2":-89.0444,"dy":0.0017,"dx":0.0017,"nx":28,"ny":28,"refTime":"2023-10-13T09:00:00:Z","depth":0,"parameterNumber":3,"parameterNumberName":"V-component_of_WINDS"},"data":[0,0,0,0,0,0,0,0,0,0,0,0,0,0,0,0,0,0,0,0,0,0,0,0,0,0,0,0,0,0,0,0,0,0,0,0,0,0,0,0,0,0,0,0,0,0,0,0,0,0,0,0,0,0,0,0,0,0,1.5713,1.5711,0,1.5587,1.5586,1.5584,1.5507,1.5507,1.5507,1.5506,1.5377,1.5374,1.5371,0,0,0,0,0,0,0,0,0,0,0,0,0,1.5884,1.5881,1.5713,1.5711,1.571,1.5587,1.5586,1.5584,1.5507,1.5507,1.5506,1.5506,1.5378,1.5374,1.5371,0,0,0,0,0,0,0,0,0,0,0,0,0,1.5789,1.5881,1.5713,1.5657,1.565,1.5588,1.5586,1.5583,1.5507,1.5507,1.5506,1.5506,1.5379,1.5375,1.537,1.5354,0,0,1.5356,1.5354,0,0,0,0,0,0,0,0,1.5795,1.5783,1.5666,1.566,1.5653,1.5562,1.5599,1.5506,1.5508,1.5562,1.5506,1.5505,1.5439,1.543,1.5407,1.5348,1.5342,1.5356,1.5353,1.5351,1.535,0,0,0,0,0,0,0,1.5801,1.5788,1.5663,1.5665,1.5657,1.5637,1.5623,1.5581,1.5505,1.5557,1.5551,1.5537,1.5435,1.5412,1.5404,1.534,1.5356,1.5352,1.5349,1.5347,1.5257,1.5258,0,0,0,0,0,0,1.5817,1.5794,1.5667,1.5659,1.5724,1.5634,1.5619,1.5592,1.5505,1.5492,1.5538,1.5534,1.542,1.5409,1.5399,1.5371,1.5351,1.5347,1.5344,1.5257,1.5257,1.5258,0,0,0,0,0,0,1.5821,1.5807,1.5672,1.5725,1.5706,1.5632,1.5603,1.559,1.5566,1.5491,1.5477,1.5528,1.5419,1.5405,1.5365,1.5366,1.5345,1.534,1.5257,1.5257,1.5258,1.5318,0,0,0,0,0,0,1.5826,1.5808,1.5802,1.5725,1.5704,1.5641,1.5603,1.5588,1.5559,1.5553,1.5478,1.5465,1.5418,1.5372,1.536,1.5359,1.5337,1.5256,1.5257,1.5257,1.5315,1.532,1.5324,0,0,0,0,0,1.5833,1.5824,1.5802,1.5787,1.5694,1.5641,1.5628,1.5574,1.5559,1.5551,1.5503,1.5467,1.5368,1.5369,1.5355,1.5352,1.5256,1.5257,1.5257,1.5313,1.5319,1.5324,0,0,0,0,0,0,1.5903,1.5813,1.5787,1.5754,1.5706,1.5628,1.5617,1.5583,1.5538,1.5534,1.5468,1.5452,1.5417,1.5381,1.5383,1.533,1.5308,1.5306,1.5355,1.536,1.5365,1.5373,1.5333,0,0,0,0,0,1.5915,1.5879,1.5803,1.5781,1.5758,1.5692,1.5666,1.5629,1.5576,1.5555,1.5504,1.5453,1.541,1.5383,1.534,1.531,1.5291,1.5301,1.5306,1.531,1.5309,1.5287,1.529,1.5261,1.5261,1.5261,0,0,1.5938,1.5885,1.5866,1.5793,1.5751,1.5715,1.5675,1.5639,1.5611,1.5549,1.5507,1.5468,1.5407,1.5371,1.5353,1.534,1.5313,1.5311,1.5315,1.5311,1.5288,1.5291,1.5294,1.5261,1.5261,1.5261,0,0,1.5961,1.5919,1.5894,1.5853,1.579,1.5746,1.574,1.5667,1.5638,1.5595,1.5547,1.5513,1.5442,1.54,1.5369,1.5376,1.5341,1.5364,1.5387,1.5367,1.5369,1.5371,1.5371,1.5372,1.5363,1.5363,1.5363,0,1.5998,1.5942,1.5886,1.5852,1.582,1.5763,1.5737,1.5699,1.5626,1.5605,1.5591,1.5498,1.5454,1.5406,1.5407,1.5385,1.5375,1.5371,1.5374,1.5375,1.5376,1.5375,1.5375,1.5366,1.5366,1.5365,1.5365,0,1.5989,1.5952,1.5939,1.5869,1.5836,1.5806,1.5744,1.5718,1.5683,1.564,1.5596,1.554,1.5484,1.547,1.5436,1.5417,1.541,1.5386,1.5362,1.5382,1.538,1.538,1.537,1.5369,1.5368,1.5367,0,0,1.6053,1.5951,1.5947,1.5913,1.5839,1.5808,1.5776,1.572,1.5697,1.5649,1.5618,1.5558,1.5535,1.55,1.5461,1.5444,1.545,1.5422,1.5419,1.5427,1.5422,1.5439,1.544,1.5427,1.5427,1.5427,1.5427,0,1.6063,1.6001,1.5949,1.5906,1.5869,1.5814,1.5785,1.5736,1.5695,1.5657,1.5612,1.5569,1.5544,1.5522,1.5503,1.5453,1.5448,1.5453,1.5396,1.5395,1.5411,1.5439,1.5457,1.546,1.5426,1.5426,1.5425,0,1.6067,1.602,1.5973,1.5901,1.5884,1.5859,1.5802,1.5768,1.571,1.5682,1.5642,1.5601,1.5563,1.5544,1.5489,1.5494,1.5468,1.544,1.5439,1.543,1.541,1.5429,1.5459,1.5459,1.5424,1.5424,1.5424,0,1.6115,1.6039,1.6001,1.5974,1.589,1.5873,1.5838,1.578,1.5749,1.57,1.5679,1.5627,1.5598,1.5558,1.5503,1.5495,1.5453,1.543,1.5426,1.5427,1.5418,1.5419,1.5443,1.5406,1.5406,1.5406,1.5406,0,1.613,1.6103,1.6021,1.5997,1.5965,1.5905,1.5874,1.5834,1.5783,1.5749,1.5699,1.5669,1.5599,1.556,1.5517,1.5477,1.5465,1.5439,1.5428,1.5442,1.5445,1.5423,1.542,1.5406,1.5406,1.5406,1.5406,0,1.6177,1.6121,1.6075,1.5999,1.5979,1.5959,1.5893,1.5867,1.5824,1.5782,1.5769,1.57,1.5651,1.5593,1.5526,1.5497,1.546,1.5444,1.5479,1.5472,1.547,1.547,1.5479,1.5476,1.5443,1.5443,1.5444,0,1.6189,1.6167,1.6089,1.6063,1.6028,1.5987,1.5955,1.5896,1.5865,1.5797,1.5779,1.5727,1.5681,1.5606,1.5549,1.5497,1.5478,1.5485,1.547,1.5485,1.5476,1.5477,1.5473,1.5488,1.5489,1.5489,1.549,0,1.6217,1.619,1.6146,1.6093,1.6056,1.6011,1.5964,1.5946,1.5876,1.5843,1.5793,1.5758,1.5689,1.5636,1.5577,1.5539,1.5502,1.5495,1.5491,1.5505,1.5525,1.5512,1.5487,1.5495,1.5494,1.5494,1.5494,1.5494,1.6245,1.6221,1.6162,1.6115,1.6073,1.603,1.6001,1.5954,1.5911,1.585,1.5818,1.5767,1.5709,1.5626,1.5589,1.5548,1.5535,1.553,1.5528,1.5527,1.5531,1.5534,1.5537,1.5537,1.5537,1.5537,1.5537,0,1.6267,1.6226,1.6184,1.6119,1.6081,1.6051,1.5997,1.5967,1.5924,1.5873,1.5829,1.5771,1.572,1.5659,1.5604,1.5583,1.5564,1.557,1.557,1.5561,1.5546,1.5554,1.5586,1.5586,1.5586,1.5586,1.5586,1.5586,1.6274,1.6233,1.6199,1.6136,1.6095,1.6046,1.6017,1.5976,1.5935,1.5872,1.5829,1.5791,1.5735,1.5676,1.5627,1.5611,1.5592,1.5602,1.558,1.5567,1.5563,1.5559,1.5566,1.5599,1.5599,1.5598,1.5598,1.5598]}]]